| time (UTC) | temp F | wind direction | speed MPH | gust MPH | rain 1hr in | rain 24hr in | rain mn in | humidity % | barometer mb |
| 20260503052924 | 57 | 0 | 0.0 | 0.0 | 0.00 | 0.35 | 0.00 | 86 | 1010.4 |
| 20260503051108 | 56 | 0 | 0.0 | 0.0 | 0.00 | 0.35 | 0.00 | 87 | 1010.5 |
| 20260503050608 | 56 | 0 | 0.0 | 0.0 | 0.00 | 0.35 | 0.00 | 87 | 1010.4 |
| 20260503045957 | 56 | 0 | 0.0 | 0.0 | 0.00 | 0.35 | 0.00 | 88 | 1010.3 |
| 20260503044251 | 56 | 0 | 0.0 | 0.0 | 0.00 | 0.35 | 0.00 | 87 | 1010.4 |
| 20260503043210 | 57 | 0 | 0.0 | 0.0 | 0.00 | 0.35 | 0.00 | 85 | 1010.6 |
| 20260503042449 | 57 | 0 | 0.0 | 0.0 | 0.00 | 0.35 | 0.00 | 84 | 1010.5 |
| 20260503040352 | 57 | 0 | 0.0 | 0.0 | 0.00 | 0.35 | 0.00 | 83 | 1010.5 |
| 20260503034259 | 57 | 0 | 0.0 | 0.0 | 0.00 | 0.35 | 0.00 | 84 | 1010.7 |
| 20260503033648 | 57 | 0 | 0.0 | 0.0 | 0.00 | 0.35 | 0.00 | 84 | 1010.8 |
| 20260503024913 | 57 | 0 | 0.0 | 0.0 | 0.00 | 0.35 | 0.00 | 85 | 1010.9 |
| 20260503022946 | 58 | 0 | 0.0 | 0.0 | 0.00 | 0.35 | 0.00 | 84 | 1011.0 |
| 20260503021721 | 58 | 0 | 0.0 | 0.0 | 0.00 | 0.35 | 0.00 | 84 | 1011.0 |
| 20260503021205 | 58 | 0 | 0.0 | 0.0 | 0.00 | 0.35 | 0.00 | 84 | 1011.1 |
| 20260503015939 | 58 | 0 | 0.0 | 0.0 | 0.00 | 0.35 | 0.00 | 84 | 1011.1 |
| 20260503013104 | 59 | 0 | 0.0 | 0.0 | 0.00 | 0.35 | 0.00 | 81 | 1011.1 |
| 20260503012538 | 60 | 0 | 0.0 | 0.0 | 0.00 | 0.35 | 0.00 | 80 | 1011.3 |
| 20260503010856 | 61 | 0 | 0.0 | 0.0 | 0.00 | 0.35 | 0.00 | 78 | 1011.4 |
| 20260503010054 | 61 | 0 | 0.0 | 0.0 | 0.00 | 0.35 | 0.00 | 77 | 1011.5 |
| 20260503005048 | 61 | 0 | 0.0 | 0.0 | 0.00 | 0.35 | 0.00 | 78 | 1011.5 |
| 20260503004354 | 61 | 0 | 0.0 | 0.0 | 0.00 | 0.35 | 0.00 | 78 | 1011.6 |
| 20260503003634 | 61 | 0 | 0.0 | 0.0 | 0.00 | 0.35 | 0.00 | 79 | 1011.7 |
| 20260503002738 | 61 | 0 | 0.0 | 0.0 | 0.00 | 0.35 | 0.00 | 78 | 1011.7 |
| 20260503002212 | 61 | 0 | 0.0 | 0.0 | 0.00 | 0.35 | 0.00 | 78 | 1011.7 |
| 20260502235110 | 62 | 0 | 0.0 | 0.0 | 0.00 | 0.35 | 0.00 | 78 | 1011.8 |
| 20260502233635 | 62 | 0 | 0.0 | 0.0 | 0.00 | 0.35 | 0.00 | 77 | 1011.9 |
| 20260502232805 | 62 | 0 | 0.0 | 0.0 | 0.00 | 0.35 | 0.00 | 76 | 1012.0 |
| 20260502230904 | 62 | 0 | 0.0 | 0.0 | 0.00 | 0.35 | 0.00 | 75 | 1011.8 |
| 20260502225702 | 62 | 0 | 0.0 | 0.0 | 0.00 | 0.35 | 0.00 | 76 | 1011.9 |
| 20260502224141 | 62 | 0 | 0.0 | 0.0 | 0.00 | 0.35 | 0.00 | 76 | 1012.1 |
| 20260502223508 | 62 | 0 | 0.0 | 0.0 | 0.00 | 0.35 | 0.00 | 77 | 1012.0 |
| 20260502222206 | 62 | 0 | 0.0 | 0.0 | 0.00 | 0.35 | 0.00 | 78 | 1012.0 |
| 20260502221640 | 62 | 0 | 0.0 | 0.0 | 0.00 | 0.35 | 0.00 | 77 | 1011.9 |
| 20260502220811 | 63 | 0 | 0.0 | 0.0 | 0.00 | 0.35 | 0.00 | 76 | 1011.9 |
| 20260502220003 | 63 | 0 | 0.0 | 0.0 | 0.00 | 0.35 | 0.35 | 75 | 1011.9 |
| 20260502215128 | 63 | 0 | 0.0 | 0.0 | 0.00 | 0.35 | 0.35 | 76 | 1011.9 |
| 20260502213412 | 63 | 0 | 0.0 | 0.0 | 0.00 | 0.35 | 0.35 | 75 | 1012.0 |
| 20260502212016 | 63 | 0 | 0.0 | 0.0 | 0.00 | 0.35 | 0.35 | 75 | 1012.1 |
| 20260502192016 | 64 | 0 | 0.0 | 0.0 | 0.00 | 0.35 | 0.35 | 74 | 1012.4 |
| 20260502191016 | 65 | 0 | 0.0 | 0.0 | 0.00 | 0.35 | 0.35 | 73 | 1012.4 |
| 20260502190014 | 65 | 0 | 0.0 | 0.0 | 0.00 | 0.35 | 0.35 | 72 | 1012.4 |
| 20260502185015 | 66 | 0 | 0.0 | 0.0 | 0.00 | 0.35 | 0.35 | 69 | 1012.4 |
| 20260502184016 | 67 | 0 | 0.0 | 0.0 | 0.00 | 0.35 | 0.35 | 65 | 1012.2 |
| 20260502183016 | 68 | 0 | 0.0 | 0.0 | 0.00 | 0.35 | 0.35 | 63 | 1012.2 |
| 20260502182015 | 69 | 0 | 0.0 | 0.0 | 0.00 | 0.35 | 0.35 | 61 | 1012.2 |
| 20260502181015 | 69 | 0 | 0.0 | 0.0 | 0.00 | 0.35 | 0.35 | 60 | 1012.1 |
| 20260502164015 | 72 | 0 | 0.0 | 0.0 | 0.00 | 0.35 | 0.35 | 55 | 1012.4 |
| 20260502163015 | 72 | 0 | 0.0 | 0.0 | 0.00 | 0.35 | 0.35 | 54 | 1012.7 |
| 20260502162015 | 72 | 0 | 0.0 | 0.0 | 0.00 | 0.35 | 0.35 | 53 | 1012.8 |
| 20260502161015 | 72 | 0 | 0.0 | 0.0 | 0.00 | 0.35 | 0.35 | 52 | 1012.8 |
| 20260502152015 | 72 | 0 | 0.0 | 0.0 | 0.00 | 0.35 | 0.35 | 55 | 1013.3 |
| 20260502150809 | 73 | 0 | 0.0 | 0.0 | 0.00 | 0.35 | 0.35 | 55 | 1013.4 |
| 20260502123810 | 70 | 0 | 0.0 | 0.0 | 0.00 | 0.35 | 0.35 | 58 | 1015.9 |
| 20260502122810 | 70 | 0 | 0.0 | 0.0 | 0.00 | 0.35 | 0.35 | 57 | 1016.1 |
| 20260502121811 | 69 | 0 | 0.0 | 0.0 | 0.00 | 0.35 | 0.35 | 62 | 1016.3 |
| 20260502120810 | 68 | 0 | 0.0 | 0.0 | 0.00 | 0.35 | 0.35 | 64 | 1016.5 |
| 20260502114811 | 67 | 0 | 0.0 | 0.0 | 0.00 | 0.35 | 0.35 | 67 | 1016.8 |
| 20260502113648 | 67 | 0 | 0.0 | 0.0 | 0.00 | 0.35 | 0.35 | 69 | 1016.9 |
| 20260502112446 | 68 | 0 | 0.0 | 0.0 | 0.00 | 0.35 | 0.35 | 67 | 1017.0 |
| 20260502111001 | 68 | 0 | 0.0 | 0.0 | 0.00 | 0.35 | 0.35 | 63 | 1017.0 |
| 20260502105146 | 69 | 0 | 0.0 | 0.0 | 0.00 | 0.35 | 0.35 | 60 | 1017.0 |
| 20260502103330 | 69 | 0 | 0.0 | 0.0 | 0.00 | 0.35 | 0.35 | 60 | 1017.0 |
| 20260502101955 | 69 | 0 | 0.0 | 0.0 | 0.00 | 0.35 | 0.35 | 62 | 1017.1 |
| 20260502100754 | 69 | 0 | 0.0 | 0.0 | 0.00 | 0.35 | 0.35 | 63 | 1017.3 |
| 20260502090153 | 67 | 0 | 0.0 | 0.0 | 0.35 | 0.35 | 0.35 | 67 | 1017.7 |
| 20260502071056 | 61 | 0 | 0.0 | 0.0 | 0.00 | 0.00 | 0.00 | 75 | 1018.3 |
| 20260502065354 | 60 | 0 | 0.0 | 0.0 | 0.00 | 0.00 | 0.00 | 78 | 1018.4 |
| 20260502063649 | 59 | 0 | 0.0 | 0.0 | 0.00 | 0.00 | 0.00 | 80 | 1018.6 |
| 20260502062008 | 57 | 0 | 0.0 | 0.0 | 0.00 | 0.00 | 0.00 | 82 | 1018.6 |
| 20260502061332 | 57 | 0 | 0.0 | 0.0 | 0.00 | 0.00 | 0.00 | 83 | 1018.6 |
| 20260502060547 | 56 | 0 | 0.0 | 0.0 | 0.00 | 0.00 | 0.00 | 83 | 1018.7 |
| 20260502054818 | 56 | 0 | 0.0 | 0.0 | 0.00 | 0.00 | 0.00 | 82 | 1018.8 |
| 20260502053552 | 57 | 0 | 0.0 | 0.0 | 0.00 | 0.00 | 0.00 | 79 | 1018.7 |